HULIANWANG DIGUI 14J

Last updated on Wed Dec 10 2025 00:02:08 GMT+0000 (Coordinated Universal Time)

1 66923U 25285J 25343.57191065 -.00000139 00000+0 83052-5 0 9995 2 66923 50.0088 130.1929 0005380 285.1968 74.8342 14.06054098 464
UTC large
Height (km)
Speed (km/s)
/
Latitude / Longitude
Inclination (degrees)
Orbital Period (minutes)
Azimuth
Elevation
Range (km)
Doppler Factor

Next 0 passes for location: London (51.5072 / 0.1276)

Sorry there are no passes over London.